Thermopolis, WY

7:40 PM MDT on July 21, 2017 (GMT -0600)
Thermopolis

Weather History for KTBX - March, 2014

Change the Weather History Date:

Wednesday, March 5, 2014

  Actual Average (KWRL) Record (KWRL)
Temperature  
Mean Temperature 36 °F -  
Max Temperature 42 °F 45 °F 68 °F (1968)
Min Temperature 30 °F 18 °F -6 °F (1989)
Degree Days  
Heating Degree Days 29    
Moisture  
Dew Point 22 °F    
Average Humidity 60    
Maximum Humidity 86    
Minimum Humidity 42    
Precipitation  
Precipitation 0.00 in - - ()
Sea Level Pressure  
Sea Level Pressure 30.06 in    
Wind  
Wind Speed 14 mph (South)    
Max Wind Speed 36 mph    
Max Gust Speed 48 mph    
Visibility 10 miles    
Events      
Averages and records for this station are not official NWS values.
T = Trace of Precipitation, MM = Missing Value Source: NWS Daily Summary

Daily Weather History Graph

Daily Weather History Graph

Search for Another Location

Airport or City:

Trip Planner

Search our weather history database for the weather conditions in past years. The results will help you decide how hot, cold, wet, or windy it might be!

Date:

Astronomy

Mar. 05, 2014 Rise Set
Actual Time 6:42 AM MST 6:07 PM MST
Civil Twilight 6:13 AM MST 6:35 PM MST
Nautical Twilight 5:40 AM MST 7:08 PM MST
Astronomical Twilight 5:07 AM MST 7:42 PM MST
Moon 9:01 AM MST (3/5) 11:28 PM MST (3/5)
Length of Visible Light 12h 21m
Length of Day
11h 24m
Waxing Crescent, 24% of the Moon is Illuminated
Mar 5
Waxing Crescent
Mar 8
First Quarter
Mar 16
Full
Mar 23
Last Quarter
Mar 30
New

Hourly Weather History & Observations

Time (MST) Temp. Windchill Dew Point Humidity Pressure Visibility Wind Dir Wind Speed Gust Speed Precip Events Conditions
12:15 AM 30.2 °F 19.8 °F 23.0 °F 75% 30.08 in 10.0 mi ESE 13.8 mph - N/A   Scattered Clouds
12:35 AM 30.2 °F 21.3 °F 23.0 °F 75% 30.08 in 10.0 mi ESE 10.4 mph - N/A   Clear
12:55 AM 30.2 °F 20.2 °F 23.0 °F 75% 30.08 in 10.0 mi SE 12.7 mph - N/A   Clear
1:15 AM 30.2 °F 19.8 °F 24.8 °F 80% 30.08 in 10.0 mi ESE 13.8 mph - N/A   Clear
1:35 AM 30.2 °F 20.2 °F 24.8 °F 80% 30.08 in 10.0 mi ESE 12.7 mph - N/A   Clear
1:55 AM 30.2 °F 21.9 °F 24.8 °F 80% 30.08 in 10.0 mi ESE 9.2 mph - N/A   Clear
2:15 AM 30.2 °F 24.3 °F 26.6 °F 86% 30.08 in 10.0 mi SE 5.8 mph - N/A   Clear
2:35 AM 30.2 °F 25.4 °F 26.6 °F 86% 30.08 in 10.0 mi SSE 4.6 mph - N/A   Clear
2:55 AM 30.2 °F 25.4 °F 24.8 °F 80% 30.08 in 10.0 mi SSE 4.6 mph - N/A   Clear
3:15 AM 30.2 °F 24.3 °F 24.8 °F 80% 30.08 in 10.0 mi SSE 5.8 mph - N/A   Clear
3:35 AM 32.0 °F 25.6 °F 19.4 °F 60% 30.08 in 10.0 mi SW 6.9 mph - N/A   Clear
3:55 AM 30.2 °F 24.3 °F 23.0 °F 75% 30.08 in 10.0 mi South 5.8 mph - N/A   Clear
4:15 AM 30.2 °F 20.8 °F 19.4 °F 64% 30.08 in 10.0 mi SW 11.5 mph - N/A   Clear
4:35 AM 30.2 °F 21.3 °F 19.4 °F 64% 30.08 in 10.0 mi SW 10.4 mph - N/A   Clear
4:55 AM 30.2 °F 21.9 °F 19.4 °F 64% 30.09 in 10.0 mi South 9.2 mph - N/A   Clear
5:15 AM 32.0 °F 23.6 °F 17.6 °F 55% 30.10 in 10.0 mi SW 10.4 mph - N/A   Clear
5:35 AM 32.0 °F 23.6 °F 15.8 °F 51% 30.11 in 10.0 mi SW 10.4 mph - N/A   Clear
5:55 AM 30.2 °F 21.3 °F 19.4 °F 64% 30.12 in 10.0 mi SW 10.4 mph - N/A   Clear
6:15 AM 32.0 °F 22.5 °F 15.8 °F 51% 30.12 in 10.0 mi WSW 12.7 mph - N/A   Clear
6:35 AM 32.0 °F 24.8 °F 14.0 °F 48% 30.12 in 10.0 mi West 8.1 mph - N/A   Clear
6:55 AM 32.0 °F 24.2 °F 15.8 °F 51% 30.12 in 10.0 mi SSW 9.2 mph - N/A   Clear
7:15 AM 32.0 °F 23.6 °F 17.6 °F 55% 30.12 in 10.0 mi SSW 10.4 mph - N/A   Scattered Clouds
7:40 AM 32.0 °F 23.0 °F 19.4 °F 60% 30.12 in 10.0 mi SSW 11.5 mph - N/A   Scattered Clouds
7:55 AM 32.0 °F 23.0 °F 19.4 °F 60% 30.12 in 10.0 mi SSW 11.5 mph - N/A   Mostly Cloudy
8:15 AM 32.0 °F 24.8 °F 19.4 °F 60% 30.12 in 10.0 mi South 8.1 mph - N/A   Scattered Clouds
8:35 AM 32.0 °F 25.6 °F 23.0 °F 69% 30.13 in 10.0 mi SSE 6.9 mph - N/A   Clear
8:55 AM 32.0 °F 23.0 °F 21.2 °F 64% 30.12 in 10.0 mi South 11.5 mph - N/A   Clear
9:15 AM 32.0 °F 24.2 °F 23.0 °F 69% 30.12 in 10.0 mi South 9.2 mph - N/A   Mostly Cloudy
9:35 AM 32.0 °F 24.8 °F 26.6 °F 80% 30.12 in 10.0 mi SSE 8.1 mph - N/A   Overcast
9:55 AM 32.0 °F 23.6 °F 26.6 °F 80% 30.12 in 10.0 mi SE 10.4 mph - N/A   Mostly Cloudy
10:15 AM 30.2 °F 22.6 °F 26.6 °F 86% 30.13 in 10.0 mi SSE 8.1 mph - N/A   Scattered Clouds
10:35 AM 32.0 °F 22.5 °F 26.6 °F 80% 30.12 in 10.0 mi SSE 12.7 mph 18.4 mph N/A   Scattered Clouds
10:55 AM 32.0 °F 22.1 °F 26.6 °F 80% 30.12 in 10.0 mi SE 13.8 mph - N/A   Clear
11:15 AM 32.0 °F 21.6 °F 23.0 °F 69% 30.12 in 10.0 mi SE 15.0 mph 20.7 mph N/A   Clear
11:35 AM 32.0 °F 21.6 °F 24.8 °F 75% 30.11 in 10.0 mi SSE 15.0 mph 21.9 mph N/A   Clear
11:55 AM 32.0 °F 22.5 °F 24.8 °F 75% 30.11 in 10.0 mi SSE 12.7 mph 20.7 mph N/A   Clear
12:15 PM 33.8 °F 22.5 °F 23.0 °F 65% 30.09 in 10.0 mi SE 19.6 mph - N/A   Clear
12:35 PM 33.8 °F 22.2 °F 23.0 °F 65% 30.09 in 10.0 mi SE 20.7 mph 24.2 mph N/A   Clear
12:55 PM 35.6 °F 25.2 °F 24.8 °F 65% 30.08 in 10.0 mi SE 18.4 mph 23.0 mph N/A   Clear
1:15 PM 35.6 °F 25.5 °F 24.8 °F 65% 30.07 in 10.0 mi SSE 17.3 mph 27.6 mph N/A   Clear
1:35 PM 37.4 °F 27.2 °F 23.0 °F 56% 30.07 in 10.0 mi SE 19.6 mph 23.0 mph N/A   Clear
1:55 PM 37.4 °F 26.9 °F 23.0 °F 56% 30.05 in 10.0 mi ESE 20.7 mph 25.3 mph N/A   Clear
2:15 PM 39.2 °F 30.2 °F 23.0 °F 52% 30.05 in 10.0 mi SE 17.3 mph 24.2 mph N/A   Clear
2:35 PM 41.0 °F 33.5 °F 23.0 °F 49% 30.05 in 10.0 mi SSE 13.8 mph 27.6 mph N/A   Clear
2:55 PM 41.0 °F 32.8 °F 21.2 °F 45% 30.03 in 10.0 mi SE 16.1 mph 21.9 mph N/A   Clear
3:15 PM 42.8 °F 33.1 °F 21.2 °F 42% 30.03 in 10.0 mi SSE 25.3 mph 34.5 mph N/A   Clear
3:35 PM 41.0 °F 30.2 °F 19.4 °F 42% 30.02 in 10.0 mi South 27.6 mph 35.7 mph N/A   Clear
3:55 PM 41.0 °F 29.7 °F 19.4 °F 42% 30.02 in 10.0 mi South 31.1 mph 43.7 mph N/A   Clear
4:15 PM 41.0 °F 32.8 °F 21.2 °F 45% 30.03 in 10.0 mi South 16.1 mph 34.5 mph N/A   Scattered Clouds
4:35 PM 41.0 °F 30.9 °F 21.2 °F 45% 30.02 in 10.0 mi South 24.2 mph 29.9 mph N/A   Scattered Clouds
4:55 PM 41.0 °F 30.9 °F 21.2 °F 45% 30.02 in 10.0 mi SSE 24.2 mph 29.9 mph N/A   Clear
5:15 PM 41.0 °F 31.4 °F 21.2 °F 45% 30.02 in 10.0 mi South 21.9 mph 29.9 mph N/A   Clear
5:35 PM 41.0 °F 32.5 °F 21.2 °F 45% 30.02 in 10.0 mi SSE 17.3 mph 28.8 mph N/A   Clear
5:55 PM 41.0 °F 32.5 °F 19.4 °F 42% 30.04 in 10.0 mi South 17.3 mph 31.1 mph N/A   Clear
6:15 PM 39.2 °F 27.2 °F 19.4 °F 45% 30.01 in 10.0 mi SW 31.1 mph 48.3 mph N/A   Clear
6:35 PM 37.4 °F 24.8 °F 19.4 °F 48% 29.99 in 10.0 mi SSW 31.1 mph 38.0 mph N/A   Clear
6:55 PM 37.4 °F 25.4 °F 21.2 °F 52% 30.00 in 10.0 mi SSW 27.6 mph 42.6 mph N/A   Clear
7:15 PM 37.4 °F 24.0 °F 19.4 °F 48% 30.01 in 10.0 mi SSW 35.7 mph 43.7 mph N/A   Clear
7:35 PM 37.4 °F 25.4 °F 17.6 °F 45% 30.01 in 10.0 mi SSW 27.6 mph 43.7 mph N/A   Clear
8:00 PM 37.4 °F 25.6 °F 17.6 °F 45% 30.01 in 10.0 mi South 26.5 mph 33.4 mph N/A   Clear
8:15 PM 35.6 °F 25.2 °F 19.4 °F 52% 30.03 in 10.0 mi South 18.4 mph 25.3 mph N/A   Clear
8:35 PM 37.4 °F 28.2 °F 19.4 °F 48% 30.02 in 10.0 mi South 16.1 mph 32.2 mph N/A   Clear
8:55 PM 37.4 °F 27.5 °F 19.4 °F 48% 30.02 in 10.0 mi SW 18.4 mph 28.8 mph N/A   Clear
9:15 PM 37.4 °F 28.9 °F 19.4 °F 48% 30.01 in 10.0 mi SW 13.8 mph 19.6 mph N/A   Clear
9:35 PM 37.4 °F 28.5 °F 19.4 °F 48% 30.01 in 10.0 mi WSW 15.0 mph - N/A   Clear
9:55 PM 37.4 °F 27.8 °F 19.4 °F 48% 30.02 in 10.0 mi WSW 17.3 mph 21.9 mph N/A   Clear
10:15 PM 37.4 °F 27.8 °F 21.2 °F 52% 30.02 in 10.0 mi SSW 17.3 mph - N/A   Clear
10:35 PM 37.4 °F 27.5 °F 21.2 °F 52% 30.00 in 10.0 mi SSW 18.4 mph 28.8 mph N/A   Clear
10:55 PM 37.4 °F 26.4 °F 21.2 °F 52% 30.00 in 10.0 mi SSW 23.0 mph 29.9 mph N/A   Clear
11:15 PM 39.2 °F 26.6 °F 21.2 °F 49% 30.00 in 10.0 mi SW 34.5 mph 43.7 mph N/A   Clear
11:35 PM 41.0 °F 29.5 °F 21.2 °F 45% 29.99 in 10.0 mi SW 32.2 mph 44.9 mph N/A   Clear
11:55 PM 41.0 °F 29.5 °F 23.0 °F 49% 29.99 in 10.0 mi SW 32.2 mph 41.4 mph N/A   Clear